| time (UTC) | temp F | wind direction | speed knots | gust knots | rain 1hr in | rain 24hr in | rain mn in | humidity % | barometer mb |
| 20260503220143 | 58 | 274 | 0.9 | 3.5 | 0.00 | 0.00 | 0.00 | 34 | 1016.1 |
| 20260503215641 | 59 | 13 | 2.6 | 6.1 | 0.00 | 0.00 | 0.00 | 31 | 1016.1 |
| 20260503215137 | 59 | 36 | 0.9 | 2.6 | 0.00 | 0.00 | 0.00 | 29 | 1016.1 |
| 20260503214636 | 59 | 32 | 2.6 | 2.6 | 0.00 | 0.00 | 0.00 | 28 | 1016.3 |
| 20260503214132 | 60 | 8 | 0.9 | 2.6 | 0.00 | 0.00 | 0.00 | 32 | 1016.2 |
| 20260503213631 | 60 | 6 | 1.7 | 2.6 | 0.00 | 0.00 | 0.00 | 30 | 1016.4 |
| 20260503213127 | 60 | 285 | 0.9 | 1.7 | 0.00 | 0.00 | 0.00 | 32 | 1016.4 |
| 20260503212625 | 58 | 105 | 0.9 | 2.6 | 0.00 | 0.00 | 0.00 | 30 | 1016.7 |
| 20260503212122 | 58 | 312 | 3.5 | 6.1 | 0.00 | 0.00 | 0.00 | 30 | 1016.6 |
| 20260503211620 | 58 | 39 | 3.5 | 7.0 | 0.00 | 0.00 | 0.00 | 28 | 1016.6 |
| 20260503211115 | 58 | 351 | 2.6 | 7.0 | 0.00 | 0.00 | 0.00 | 30 | 1016.7 |
| 20260503210612 | 59 | 40 | 2.6 | 7.0 | 0.00 | 0.00 | 0.00 | 29 | 1016.6 |
| 20260503210108 | 58 | 80 | 0.0 | 2.6 | 0.00 | 0.00 | 0.00 | 32 | 1016.4 |
| 20260503205559 | 58 | 45 | 3.5 | 5.2 | 0.00 | 0.00 | 0.00 | 30 | 1016.6 |
| 20260503205055 | 58 | 47 | 0.9 | 1.7 | 0.00 | 0.00 | 0.00 | 29 | 1016.7 |
| 20260503204552 | 58 | 341 | 2.6 | 7.0 | 0.00 | 0.00 | 0.00 | 31 | 1016.7 |
| 20260503204050 | 60 | 68 | 1.7 | 2.6 | 0.00 | 0.00 | 0.00 | 28 | 1016.9 |
| 20260503203547 | 59 | 51 | 1.7 | 2.6 | 0.00 | 0.00 | 0.00 | 30 | 1017.0 |
| 20260503203044 | 58 | 58 | 0.9 | 6.1 | 0.00 | 0.00 | 0.00 | 28 | 1017.1 |
| 20260503202541 | 58 | 358 | 6.1 | 9.6 | 0.00 | 0.00 | 0.00 | 29 | 1017.0 |
| 20260503202034 | 58 | 66 | 5.2 | 8.7 | 0.00 | 0.00 | 0.00 | 28 | 1017.1 |
| 20260503201532 | 58 | 0 | 2.6 | 5.2 | 0.00 | 0.00 | 0.00 | 30 | 1017.2 |
| 20260503201028 | 58 | 347 | 4.3 | 7.8 | 0.00 | 0.00 | 0.00 | 31 | 1017.0 |
| 20260503200524 | 58 | 358 | 2.6 | 6.1 | 0.00 | 0.00 | 0.00 | 29 | 1017.3 |
| 20260503200015 | 58 | 104 | 3.5 | 7.8 | 0.00 | 0.00 | 0.00 | 30 | 1017.3 |
| 20260503195513 | 59 | 64 | 2.6 | 3.5 | 0.00 | 0.00 | 0.00 | 32 | 1017.4 |
| 20260503195009 | 59 | 342 | 5.2 | 7.0 | 0.00 | 0.00 | 0.00 | 31 | 1017.4 |
| 20260503194506 | 58 | 298 | 3.5 | 5.2 | 0.00 | 0.00 | 0.00 | 29 | 1017.4 |
| 20260503194000 | 58 | 45 | 3.5 | 3.5 | 0.00 | 0.00 | 0.00 | 28 | 1017.6 |
| 20260503193457 | 58 | 316 | 2.6 | 7.8 | 0.00 | 0.00 | 0.00 | 30 | 1017.4 |
| 20260503192952 | 59 | 145 | 1.7 | 2.6 | 0.00 | 0.00 | 0.00 | 27 | 1017.7 |
| 20260503192449 | 59 | 142 | 2.6 | 7.0 | 0.00 | 0.00 | 0.00 | 31 | 1017.5 |
| 20260503191944 | 58 | 135 | 2.6 | 7.0 | 0.00 | 0.00 | 0.00 | 29 | 1017.5 |
| 20260503191442 | 59 | 54 | 1.7 | 5.2 | 0.00 | 0.00 | 0.00 | 35 | 1017.6 |
| 20260503190938 | 57 | 209 | 1.7 | 6.1 | 0.00 | 0.00 | 0.00 | 32 | 1017.7 |
| 20260503190436 | 57 | 66 | 2.6 | 5.2 | 0.00 | 0.00 | 0.00 | 34 | 1017.9 |
| 20260503185933 | 57 | 161 | 3.5 | 6.1 | 0.00 | 0.00 | 0.00 | 34 | 1017.9 |
| 20260503185429 | 58 | 61 | 3.5 | 5.2 | 0.00 | 0.00 | 0.00 | 32 | 1018.1 |
| 20260503184928 | 58 | 59 | 0.9 | 2.6 | 0.00 | 0.00 | 0.00 | 33 | 1017.9 |
| 20260503184425 | 57 | 15 | 0.9 | 3.5 | 0.00 | 0.00 | 0.00 | 35 | 1018.1 |
| 20260503183922 | 57 | 140 | 1.7 | 5.2 | 0.00 | 0.00 | 0.00 | 33 | 1018.2 |
| 20260503183418 | 56 | 9 | 0.9 | 6.1 | 0.00 | 0.00 | 0.00 | 32 | 1018.4 |
| 20260503182915 | 56 | 344 | 7.8 | 12.2 | 0.00 | 0.00 | 0.00 | 32 | 1018.3 |
| 20260503182414 | 57 | 315 | 3.5 | 13.0 | 0.00 | 0.00 | 0.00 | 35 | 1018.4 |
| 20260503181911 | 56 | 341 | 3.5 | 8.7 | 0.00 | 0.00 | 0.00 | 38 | 1018.1 |
| 20260503181408 | 56 | 55 | 1.7 | 7.0 | 0.00 | 0.00 | 0.00 | 33 | 1018.4 |
| 20260503180904 | 56 | 41 | 5.2 | 7.8 | 0.00 | 0.00 | 0.00 | 34 | 1018.5 |
| 20260503180403 | 56 | 3 | 5.2 | 7.0 | 0.00 | 0.00 | 0.00 | 34 | 1018.6 |
| 20260503175858 | 57 | 171 | 2.6 | 2.6 | 0.00 | 0.00 | 0.00 | 31 | 1018.5 |
| 20260503175357 | 55 | 102 | 2.6 | 8.7 | 0.00 | 0.00 | 0.00 | 37 | 1018.4 |
| 20260503174857 | 57 | 11 | 2.6 | 5.2 | 0.00 | 0.00 | 0.00 | 36 | 1018.8 |
| 20260503174356 | 56 | 2 | 7.0 | 11.3 | 0.00 | 0.00 | 0.00 | 33 | 1018.5 |
| 20260503173851 | 55 | 40 | 5.2 | 7.8 | 0.00 | 0.00 | 0.00 | 33 | 1018.4 |
| 20260503173348 | 54 | 7 | 2.6 | 6.1 | 0.00 | 0.00 | 0.00 | 39 | 1018.3 |
| 20260503172844 | 55 | 43 | 5.2 | 6.1 | 0.00 | 0.00 | 0.00 | 31 | 1018.8 |
| 20260503172342 | 55 | 64 | 0.0 | 2.6 | 0.00 | 0.00 | 0.00 | 32 | 1018.5 |
| 20260503171838 | 55 | 311 | 1.7 | 6.1 | 0.00 | 0.00 | 0.00 | 37 | 1018.8 |
| 20260503171335 | 53 | 318 | 1.7 | 9.6 | 0.00 | 0.00 | 0.00 | 34 | 1018.9 |
| 20260503170832 | 53 | 171 | 0.9 | 20.0 | 0.00 | 0.00 | 0.00 | 35 | 1018.9 |
| 20260503170329 | 53 | 26 | 7.0 | 8.7 | 0.00 | 0.00 | 0.00 | 37 | 1019.0 |
| 20260503150721 | 51 | 52 | 3.5 | 7.0 | 0.00 | 0.00 | 0.00 | 43 | 1019.9 |
| 20260503150217 | 50 | 136 | 0.9 | 5.2 | 0.00 | 0.00 | 0.00 | 43 | 1020.0 |
| 20260503140142 | 48 | 19 | 4.3 | 11.3 | 0.00 | 0.00 | 0.00 | 46 | 1020.2 |
| 20260503131111 | 45 | 353 | 3.5 | 3.5 | 0.00 | 0.00 | 0.00 | 51 | 1020.0 |
| 20260503130608 | 45 | 349 | 7.0 | 11.3 | 0.00 | 0.00 | 0.00 | 51 | 1019.9 |
| 20260503130106 | 45 | 355 | 7.0 | 13.0 | 0.00 | 0.00 | 0.00 | 53 | 1020.1 |
| 20260503110458 | 41 | 253 | 0.0 | 0.0 | 0.00 | 0.00 | 0.00 | 59 | 1019.1 |
| 20260503090344 | 36 | 250 | 0.9 | 1.7 | 0.00 | 0.00 | 0.00 | 80 | 1017.9 |
| 20260503081311 | 38 | 12 | 1.7 | 5.2 | 0.00 | 0.00 | 0.00 | 77 | 1017.5 |
| 20260503080807 | 38 | 5 | 1.7 | 3.5 | 0.00 | 0.00 | 0.00 | 75 | 1017.6 |
| 20260503080305 | 39 | 25 | 0.9 | 7.0 | 0.00 | 0.00 | 0.00 | 71 | 1017.2 |
| 20260503072741 | 38 | 214 | 0.0 | 0.0 | 0.00 | 0.00 | 0.00 | 70 | 1016.9 |
| 20260503072238 | 38 | 260 | 0.9 | 1.7 | 0.00 | 0.00 | 0.00 | 69 | 1017.0 |
| 20260503071734 | 39 | 255 | 0.9 | 1.7 | 0.00 | 0.00 | 0.00 | 70 | 1017.0 |
| 20260503071231 | 39 | 258 | 0.0 | 0.0 | 0.00 | 0.00 | 0.00 | 70 | 1016.9 |
| 20260503070727 | 39 | 272 | 0.0 | 0.0 | 0.00 | 0.00 | 0.00 | 69 | 1017.0 |
| 20260503070226 | 38 | 236 | 0.9 | 1.7 | 0.00 | 0.00 | 0.00 | 70 | 1016.8 |
| 20260503060150 | 40 | 248 | 1.7 | 1.7 | 0.00 | 0.00 | 0.00 | 68 | 1016.8 |
| 20260503054637 | 41 | 312 | 0.0 | 1.7 | 0.00 | 0.00 | 0.00 | 65 | 1016.9 |
| 20260503054135 | 41 | 273 | 0.0 | 0.9 | 0.00 | 0.00 | 0.00 | 62 | 1017.0 |
| 20260503053633 | 41 | 351 | 2.6 | 3.5 | 0.00 | 0.00 | 0.00 | 62 | 1016.9 |
| 20260503053131 | 41 | 7 | 0.9 | 1.7 | 0.00 | 0.00 | 0.00 | 64 | 1016.7 |
| 20260503052627 | 42 | 74 | 0.9 | 2.6 | 0.00 | 0.00 | 0.00 | 61 | 1016.8 |
| 20260503052124 | 42 | 229 | 0.9 | 1.7 | 0.00 | 0.00 | 0.00 | 63 | 1016.7 |
| 20260503051619 | 42 | 333 | 0.0 | 1.7 | 0.00 | 0.00 | 0.00 | 61 | 1016.8 |
| 20260503051117 | 42 | 222 | 0.0 | 1.7 | 0.00 | 0.00 | 0.00 | 61 | 1016.4 |
| 20260503050613 | 42 | 25 | 3.5 | 6.1 | 0.00 | 0.00 | 0.00 | 62 | 1016.9 |
| 20260503050110 | 42 | 65 | 4.3 | 6.1 | 0.00 | 0.00 | 0.00 | 63 | 1016.7 |
| 20260503045607 | 42 | 335 | 0.0 | 2.6 | 0.00 | 0.00 | 0.00 | 65 | 1016.8 |
| 20260503045104 | 42 | 322 | 0.0 | 3.5 | 0.00 | 0.00 | 0.00 | 64 | 1016.8 |
| 20260503044601 | 42 | 242 | 0.9 | 1.7 | 0.00 | 0.00 | 0.00 | 69 | 1016.7 |
| 20260503044059 | 42 | 234 | 0.0 | 2.6 | 0.00 | 0.00 | 0.00 | 67 | 1016.9 |
| 20260503043554 | 42 | 216 | 1.7 | 2.6 | 0.00 | 0.00 | 0.00 | 70 | 1016.8 |
| 20260503043051 | 42 | 324 | 0.9 | 1.7 | 0.00 | 0.00 | 0.00 | 71 | 1016.8 |
| 20260503042548 | 42 | 313 | 0.0 | 0.9 | 0.00 | 0.00 | 0.00 | 71 | 1017.0 |
| 20260503042045 | 42 | 314 | 0.0 | 1.7 | 0.00 | 0.00 | 0.00 | 68 | 1016.6 |
| 20260503041542 | 42 | 298 | 0.0 | 2.6 | 0.00 | 0.00 | 0.00 | 68 | 1016.8 |
| 20260503041039 | 42 | 256 | 0.0 | 0.9 | 0.00 | 0.00 | 0.00 | 69 | 1016.8 |
| 20260503040537 | 42 | 250 | 0.0 | 0.9 | 0.00 | 0.00 | 0.00 | 69 | 1016.9 |
| 20260503040034 | 42 | 262 | 0.0 | 0.0 | 0.00 | 0.00 | 0.00 | 67 | 1016.8 |
| 20260503035530 | 42 | 249 | 0.9 | 0.9 | 0.00 | 0.00 | 0.00 | 69 | 1016.8 |
| 20260503035028 | 42 | 248 | 0.9 | 0.9 | 0.00 | 0.00 | 0.00 | 68 | 1017.0 |
| 20260503034525 | 42 | 249 | 0.9 | 0.9 | 0.00 | 0.00 | 0.00 | 66 | 1016.9 |
| 20260503034022 | 43 | 343 | 0.9 | 1.7 | 0.00 | 0.00 | 0.00 | 65 | 1016.9 |
| 20260503033519 | 43 | 334 | 0.9 | 2.6 | 0.00 | 0.00 | 0.00 | 64 | 1017.0 |
| 20260503033018 | 43 | 331 | 0.0 | 1.7 | 0.00 | 0.00 | 0.00 | 67 | 1016.8 |
| 20260503032515 | 42 | 109 | 0.9 | 1.7 | 0.00 | 0.00 | 0.00 | 63 | 1016.9 |
| 20260503032013 | 43 | 283 | 0.0 | 1.7 | 0.00 | 0.00 | 0.00 | 66 | 1016.9 |
| 20260503031511 | 42 | 42 | 4.3 | 5.2 | 0.00 | 0.00 | 0.00 | 64 | 1016.7 |
| 20260503031007 | 42 | 251 | 0.0 | 0.9 | 0.00 | 0.00 | 0.00 | 65 | 1016.8 |
| 20260503030503 | 42 | 252 | 0.0 | 1.7 | 0.00 | 0.00 | 0.00 | 65 | 1017.0 |
| 20260503030000 | 41 | 240 | 0.9 | 0.9 | 0.00 | 0.00 | 0.00 | 67 | 1017.0 |
| 20260503025457 | 42 | 224 | 0.9 | 1.7 | 0.00 | 0.00 | 0.00 | 67 | 1016.9 |
| 20260503024955 | 42 | 239 | 1.7 | 1.7 | 0.00 | 0.00 | 0.00 | 63 | 1016.9 |
| 20260503024451 | 43 | 255 | 0.9 | 0.9 | 0.00 | 0.00 | 0.00 | 64 | 1017.0 |
| 20260503023949 | 43 | 197 | 0.0 | 0.9 | 0.00 | 0.00 | 0.00 | 60 | 1017.2 |
| 20260503023445 | 43 | 250 | 0.9 | 1.7 | 0.00 | 0.00 | 0.00 | 60 | 1016.9 |
| 20260503022942 | 42 | 265 | 0.0 | 0.9 | 0.00 | 0.00 | 0.00 | 64 | 1017.0 |
| 20260503022437 | 42 | 263 | 0.9 | 2.6 | 0.00 | 0.00 | 0.00 | 60 | 1017.0 |
| 20260503021933 | 42 | 249 | 0.9 | 1.7 | 0.00 | 0.00 | 0.00 | 62 | 1016.9 |
| 20260503021430 | 42 | 243 | 1.7 | 1.7 | 0.00 | 0.00 | 0.00 | 62 | 1016.7 |
| 20260503020927 | 43 | 234 | 1.7 | 2.6 | 0.00 | 0.00 | 0.00 | 63 | 1016.8 |
| 20260503020425 | 42 | 244 | 2.6 | 2.6 | 0.00 | 0.00 | 0.00 | 65 | 1016.8 |
| 20260503015921 | 42 | 242 | 0.9 | 1.7 | 0.00 | 0.00 | 0.00 | 64 | 1016.6 |
| 20260503015418 | 43 | 244 | 1.7 | 2.6 | 0.00 | 0.00 | 0.00 | 63 | 1016.8 |
| 20260503014914 | 43 | 266 | 0.0 | 2.6 | 0.00 | 0.00 | 0.00 | 57 | 1016.7 |
| 20260503014411 | 43 | 242 | 0.9 | 0.9 | 0.00 | 0.00 | 0.00 | 61 | 1016.7 |
| 20260503013909 | 44 | 241 | 0.9 | 0.9 | 0.00 | 0.00 | 0.00 | 58 | 1016.8 |
| 20260503013406 | 45 | 359 | 0.9 | 1.7 | 0.00 | 0.00 | 0.00 | 54 | 1016.4 |
| 20260503012903 | 44 | 329 | 1.7 | 5.2 | 0.00 | 0.00 | 0.00 | 54 | 1016.4 |
| 20260503012401 | 44 | 357 | 0.9 | 1.7 | 0.00 | 0.00 | 0.00 | 57 | 1016.6 |
| 20260503011857 | 45 | 230 | 0.0 | 0.9 | 0.00 | 0.00 | 0.00 | 61 | 1016.2 |
| 20260503011349 | 46 | 221 | 1.7 | 1.7 | 0.00 | 0.00 | 0.00 | 52 | 1016.3 |
| 20260503010845 | 46 | 257 | 0.9 | 0.9 | 0.00 | 0.00 | 0.00 | 51 | 1016.0 |
| 20260503010342 | 46 | 213 | 1.7 | 2.6 | 0.00 | 0.00 | 0.00 | 52 | 1016.0 |
| 20260503005839 | 46 | 318 | 0.0 | 0.0 | 0.00 | 0.00 | 0.00 | 50 | 1016.0 |
| 20260503005337 | 46 | 304 | 0.0 | 0.0 | 0.00 | 0.00 | 0.00 | 52 | 1015.9 |
| 20260503004832 | 47 | 284 | 0.0 | 0.0 | 0.00 | 0.00 | 0.00 | 50 | 1015.7 |
| 20260503004330 | 47 | 231 | 0.9 | 2.6 | 0.00 | 0.00 | 0.00 | 48 | 1015.7 |
| 20260503003828 | 48 | 20 | 1.7 | 1.7 | 0.00 | 0.00 | 0.00 | 47 | 1015.7 |
| 20260503003324 | 48 | 293 | 2.6 | 3.5 | 0.00 | 0.00 | 0.00 | 48 | 1015.6 |
| 20260503002821 | 47 | 72 | 0.9 | 1.7 | 0.00 | 0.00 | 0.00 | 45 | 1015.5 |
| 20260503002318 | 47 | 243 | 0.9 | 1.7 | 0.00 | 0.00 | 0.00 | 50 | 1015.7 |
| 20260503001814 | 46 | 272 | 0.9 | 1.7 | 0.00 | 0.00 | 0.00 | 47 | 1015.4 |
| 20260503001311 | 47 | 238 | 0.0 | 1.7 | 0.00 | 0.00 | 0.00 | 52 | 1015.4 |
| 20260503000808 | 48 | 248 | 0.9 | 0.9 | 0.00 | 0.00 | 0.00 | 49 | 1015.4 |
| 20260503000305 | 48 | 122 | 0.9 | 6.1 | 0.00 | 0.00 | 0.00 | 42 | 1015.1 |
| 20260502235802 | 48 | 36 | 0.0 | 1.7 | 0.00 | 0.00 | 0.00 | 45 | 1015.2 |
| 20260502235300 | 49 | 24 | 0.9 | 0.9 | 0.00 | 0.00 | 0.00 | 47 | 1015.3 |
| 20260502234756 | 49 | 155 | 0.9 | 2.6 | 0.00 | 0.00 | 0.00 | 42 | 1015.0 |
| 20260502234253 | 49 | 299 | 0.9 | 0.9 | 0.00 | 0.00 | 0.00 | 43 | 1015.0 |
| 20260502233749 | 49 | 139 | 5.2 | 9.6 | 0.00 | 0.00 | 0.00 | 41 | 1015.1 |
| 20260502233246 | 49 | 113 | 2.6 | 3.5 | 0.00 | 0.00 | 0.00 | 42 | 1014.8 |
| 20260502232742 | 49 | 53 | 0.9 | 3.5 | 0.00 | 0.00 | 0.00 | 41 | 1014.9 |
| 20260502232239 | 49 | 306 | 1.7 | 3.5 | 0.00 | 0.00 | 0.00 | 43 | 1015.0 |
| 20260502231736 | 49 | 81 | 1.7 | 3.5 | 0.00 | 0.00 | 0.00 | 44 | 1014.8 |
| 20260502231234 | 49 | 164 | 0.0 | 2.6 | 0.00 | 0.00 | 0.00 | 44 | 1014.9 |
| 20260502230732 | 50 | 334 | 0.9 | 1.7 | 0.00 | 0.00 | 0.00 | 42 | 1014.7 |
| 20260502230230 | 50 | 28 | 1.7 | 3.5 | 0.00 | 0.00 | 0.00 | 41 | 1014.8 |
| 20260502225726 | 50 | 2 | 0.9 | 2.6 | 0.00 | 0.00 | 0.00 | 41 | 1015.0 |
| 20260502225223 | 50 | 358 | 0.0 | 0.9 | 0.00 | 0.00 | 0.00 | 43 | 1014.8 |
| 20260502224719 | 50 | 98 | 1.7 | 2.6 | 0.00 | 0.00 | 0.00 | 40 | 1014.8 |
| 20260502224216 | 50 | 44 | 1.7 | 7.0 | 0.00 | 0.00 | 0.00 | 41 | 1014.7 |
| 20260502223714 | 50 | 355 | 4.3 | 5.2 | 0.00 | 0.00 | 0.00 | 40 | 1014.8 |
| 20260502223212 | 50 | 138 | 0.9 | 1.7 | 0.00 | 0.00 | 0.00 | 41 | 1014.7 |
| 20260502222709 | 50 | 84 | 1.7 | 3.5 | 0.00 | 0.00 | 0.00 | 39 | 1014.9 |
| 20260502222206 | 50 | 349 | 2.6 | 3.5 | 0.00 | 0.00 | 0.00 | 41 | 1014.7 |
| 20260502221701 | 51 | 350 | 0.9 | 3.5 | 0.00 | 0.00 | 0.00 | 40 | 1014.7 |
| 20260502221159 | 51 | 100 | 0.9 | 6.1 | 0.00 | 0.00 | 0.00 | 40 | 1014.5 |
| 20260502220655 | 51 | 346 | 0.0 | 0.0 | 0.00 | 0.00 | 0.00 | 40 | 1014.6 |